AEE605 EGLL-LGAV

Flight info

Callsign AEE605
Flight time N/A
Altitude 35000
Route DET L6 DVR UL9 KONAN DCT KOK DCT SISGA DCT KOMOB DCT BANUX DCT BABEG DCT KUMOM DCT NIPEL DCT ABISO DCT NEMEK DCT ELTIB/N0454F370 DCT PINDO DCT PIKOS UL607 XORKI
Aircraft A320/M-SDE3FGHIRWY/LB1

Departure

Time N/A
Airport London Heathrow Airport (EGLL)

Arrival

Time 2026-04-30 21:49
Airport Athens Eleftherios Venizelos International Airport (LGAV)
Time Latitude Longitude Altitude Speed Heading
2026-04-30 20:06 46.72038 13.68222 35354 ft 463 kts 128°
2026-04-30 20:07 46.67592 13.75010 35352 ft 463 kts 128°
2026-04-30 20:08 46.60899 13.85185 35353 ft 465 kts 128°
2026-04-30 20:08 46.56421 13.91962 35378 ft 465 kts 128°
2026-04-30 20:09 46.51939 13.98739 35366 ft 465 kts 129°
2026-04-30 20:09 46.45139 14.08805 35369 ft 467 kts 130°
2026-04-30 20:10 46.38089 14.18609 35407 ft 469 kts 132°
2026-04-30 20:11 46.31047 14.28455 35403 ft 469 kts 131°
2026-04-30 20:11 46.26360 14.35035 35401 ft 470 kts 131°
2026-04-30 20:12 46.19303 14.44917 35388 ft 471 kts 131°
2026-04-30 20:13 46.14582 14.51499 35414 ft 472 kts 132°
2026-04-30 20:13 46.09850 14.58072 35403 ft 473 kts 132°
2026-04-30 20:14 46.05107 14.64632 35400 ft 473 kts 132°
2026-04-30 20:14 46.00361 14.71187 35384 ft 473 kts 132°
2026-04-30 20:15 45.95644 14.77718 35405 ft 474 kts 132°
2026-04-30 20:15 45.90886 14.84281 35408 ft 474 kts 133°
2026-04-30 20:16 45.86113 14.90815 35408 ft 474 kts 133°
2026-04-30 20:16 45.81341 14.97337 35403 ft 474 kts 133°
2026-04-30 20:17 45.76569 15.03855 35403 ft 474 kts 133°
2026-04-30 20:17 45.71794 15.10366 35423 ft 474 kts 133°
2026-04-30 20:18 45.67010 15.16870 35409 ft 474 kts 133°
2026-04-30 20:18 45.62223 15.23358 35400 ft 474 kts 134°
2026-04-30 20:19 45.57427 15.29833 35403 ft 475 kts 134°
2026-04-30 20:19 45.52499 15.36118 35388 ft 476 kts 137°
2026-04-30 20:20 45.47436 15.42212 35393 ft 476 kts 137°
2026-04-30 20:20 45.42401 15.48254 35387 ft 476 kts 137°
2026-04-30 20:21 45.37359 15.54392 35385 ft 476 kts 137°
2026-04-30 20:21 45.32334 15.60537 35387 ft 477 kts 137°
2026-04-30 20:22 45.27291 15.66678 35392 ft 477 kts 137°
2026-04-30 20:22 45.22246 15.72796 35387 ft 478 kts 137°
2026-04-30 20:23 45.17188 15.78917 35385 ft 478 kts 137°
2026-04-30 20:23 45.12119 15.85026 35385 ft 479 kts 138°
2026-04-30 20:24 45.07038 15.91127 35404 ft 479 kts 138°
2026-04-30 20:24 45.01959 15.97227 35385 ft 479 kts 138°
2026-04-30 20:25 44.94325 16.06367 35372 ft 480 kts 139°
2026-04-30 20:26 44.86667 16.15493 35377 ft 481 kts 138°
2026-04-30 20:26 44.79004 16.24614 35380 ft 481 kts 139°
2026-04-30 20:27 44.68745 16.36723 35372 ft 482 kts 139°
2026-04-30 20:28 44.58477 16.48828 35381 ft 482 kts 139°
2026-04-30 20:30 44.46458 16.62896 35359 ft 483 kts 140°
2026-04-30 20:31 44.30932 16.80967 35367 ft 484 kts 140°
2026-04-30 20:32 44.18013 16.96095 35381 ft 485 kts 140°
2026-04-30 20:33 44.10246 17.05164 35382 ft 485 kts 140°
2026-04-30 20:34 44.02483 17.14210 35350 ft 486 kts 140°
2026-04-30 20:35 43.94708 17.23213 35362 ft 487 kts 141°
2026-04-30 20:35 43.86882 17.32212 35348 ft 487 kts 141°
2026-04-30 20:36 43.81659 17.38233 35333 ft 488 kts 141°
2026-04-30 20:37 43.73812 17.47246 35324 ft 489 kts 141°
2026-04-30 20:37 43.68561 17.53234 35309 ft 489 kts 141°
2026-04-30 20:38 43.63302 17.59226 35309 ft 490 kts 141°
2026-04-30 20:38 43.58045 17.65212 35273 ft 490 kts 142°
2026-04-30 20:39 43.50174 17.74155 35279 ft 491 kts 142°
2026-04-30 20:40 43.42254 17.83131 35263 ft 492 kts 142°
2026-04-30 20:40 43.36968 17.89095 35260 ft 492 kts 142°
2026-04-30 20:41 43.29028 17.98017 35257 ft 491 kts 142°
2026-04-30 20:41 43.23727 18.03954 35260 ft 492 kts 142°
2026-04-30 20:42 43.18431 18.09879 35265 ft 491 kts 142°
2026-04-30 20:43 43.10469 18.18759 35238 ft 492 kts 143°
2026-04-30 20:43 43.05154 18.24688 35231 ft 493 kts 143°
2026-04-30 20:44 42.97160 18.33559 35242 ft 494 kts 143°
2026-04-30 20:45 42.86464 18.45364 35226 ft 495 kts 143°
2026-04-30 20:45 42.81100 18.51270 35221 ft 496 kts 143°
2026-04-30 20:46 42.70355 18.63075 35226 ft 496 kts 143°
2026-04-30 20:47 42.62272 18.71896 35209 ft 497 kts 144°
2026-04-30 20:48 42.54173 18.80720 35220 ft 498 kts 144°
2026-04-30 20:48 42.48798 18.86557 35222 ft 498 kts 144°
2026-04-30 20:49 42.43381 18.92424 35199 ft 498 kts 144°
2026-04-30 20:50 42.35260 19.01206 35200 ft 498 kts 144°
2026-04-30 20:50 42.29838 19.07051 35214 ft 499 kts 144°
2026-04-30 20:51 42.24403 19.12891 35228 ft 499 kts 145°
2026-04-30 20:51 42.16249 19.21625 35187 ft 499 kts 145°
2026-04-30 20:52 42.10796 19.27450 35183 ft 500 kts 145°
2026-04-30 20:53 42.02604 19.36186 35194 ft 501 kts 145°
2026-04-30 20:53 41.97140 19.41992 35184 ft 501 kts 146°
2026-04-30 20:54 41.88914 19.50709 35160 ft 502 kts 146°
2026-04-30 20:55 41.80681 19.59425 35162 ft 503 kts 146°
2026-04-30 20:55 41.75177 19.65211 35168 ft 503 kts 146°
2026-04-30 20:56 41.66909 19.73872 35152 ft 503 kts 146°
2026-04-30 20:57 41.58645 19.82542 35172 ft 503 kts 146°
2026-04-30 20:57 41.53129 19.88305 35180 ft 502 kts 147°
2026-04-30 20:58 41.44866 19.96896 35136 ft 501 kts 147°
2026-04-30 20:58 41.39397 20.02571 35153 ft 501 kts 147°
2026-04-30 20:59 41.31148 20.11108 35168 ft 500 kts 147°
2026-04-30 21:00 41.20162 20.22437 35157 ft 499 kts 148°
2026-04-30 21:01 41.11912 20.30904 35174 ft 500 kts 148°
2026-04-30 21:02 41.03666 20.39351 35190 ft 499 kts 148°
2026-04-30 21:02 40.98170 20.44972 35196 ft 499 kts 148°
2026-04-30 21:03 40.92659 20.50589 35208 ft 499 kts 148°
2026-04-30 21:03 40.87157 20.56191 35209 ft 499 kts 148°
2026-04-30 21:04 40.81687 20.61745 35218 ft 499 kts 148°
2026-04-30 21:04 40.73421 20.70110 35209 ft 499 kts 148°
2026-04-30 21:05 40.67912 20.75683 35179 ft 499 kts 148°
2026-04-30 21:05 40.62398 20.81232 35189 ft 499 kts 148°
2026-04-30 21:06 40.56882 20.86766 35191 ft 498 kts 148°
2026-04-30 21:06 40.51372 20.92280 35197 ft 497 kts 149°
2026-04-30 21:07 40.45892 20.97866 35191 ft 499 kts 146°
2026-04-30 21:07 40.40644 21.03873 35156 ft 502 kts 143°
2026-04-30 21:08 40.35487 21.10065 35165 ft 503 kts 143°
2026-04-30 21:08 40.30282 21.16168 35180 ft 502 kts 144°
2026-04-30 21:09 40.25013 21.22180 35194 ft 502 kts 144°
2026-04-30 21:09 40.19737 21.28163 35195 ft 502 kts 144°
2026-04-30 21:10 40.14503 21.34129 35163 ft 502 kts 144°
2026-04-30 21:10 40.09250 21.40130 35170 ft 502 kts 144°
2026-04-30 21:11 40.03993 21.46124 35179 ft 502 kts 144°
2026-04-30 21:11 39.98716 21.52107 35185 ft 502 kts 144°
2026-04-30 21:12 39.93437 21.58080 35175 ft 502 kts 144°
2026-04-30 21:12 39.88159 21.64043 35155 ft 502 kts 144°
2026-04-30 21:13 39.82871 21.70002 35154 ft 503 kts 144°
2026-04-30 21:13 39.77580 21.75950 35157 ft 503 kts 144°
2026-04-30 21:14 39.72291 21.81886 35150 ft 502 kts 144°
2026-04-30 21:14 39.67002 21.87818 35153 ft 502 kts 144°
2026-04-30 21:15 39.61725 21.93731 35125 ft 502 kts 144°
2026-04-30 21:15 39.57321 21.98638 35133 ft 501 kts 144°
2026-04-30 21:16 39.52024 22.04528 35138 ft 501 kts 144°
2026-04-30 21:16 39.46730 22.10405 35139 ft 502 kts 144°
2026-04-30 21:17 39.41430 22.16284 35136 ft 502 kts 144°
2026-04-30 21:17 39.36132 22.22162 35131 ft 502 kts 144°
2026-04-30 21:18 39.30827 22.28029 35145 ft 501 kts 144°
2026-04-30 21:18 39.25554 22.33851 35148 ft 501 kts 144°
2026-04-30 21:19 39.20247 22.39689 35147 ft 501 kts 144°
2026-04-30 21:19 39.14937 22.45512 35147 ft 501 kts 144°
2026-04-30 21:20 39.09624 22.51313 35130 ft 500 kts 144°
2026-04-30 21:20 39.04311 22.57098 35141 ft 500 kts 144°
2026-04-30 21:21 38.99011 22.62882 35138 ft 500 kts 143°
2026-04-30 21:22 38.91053 22.71562 35137 ft 500 kts 144°
2026-04-30 21:23 38.80422 22.83067 35122 ft 499 kts 143°
2026-04-30 21:23 38.72465 22.91665 35136 ft 498 kts 143°
2026-04-30 21:24 38.67163 22.97371 35127 ft 498 kts 144°
2026-04-30 21:24 38.61864 23.03069 35121 ft 497 kts 144°
2026-04-30 21:25 38.53916 23.11607 35102 ft 497 kts 143°
2026-04-30 21:26 38.46010 23.20076 35123 ft 497 kts 143°
2026-04-30 21:27 38.38058 23.28549 35124 ft 496 kts 143°
2026-04-30 21:27 38.32753 23.34180 35119 ft 496 kts 144°
2026-04-30 21:28 38.24800 23.42608 35111 ft 496 kts 144°
2026-04-30 21:28 38.19509 23.48206 34888 ft 494 kts 144°
2026-04-30 21:29 38.16892 23.51029 34640 ft 494 kts 140°
2026-04-30 21:29 38.09626 23.60464 32739 ft 504 kts 137°
2026-04-30 21:30 38.04701 23.66881 30885 ft 511 kts 137°
2026-04-30 21:31 37.97357 23.76419 27654 ft 488 kts 137°
2026-04-30 21:31 37.92696 23.82450 26355 ft 474 kts 137°
2026-04-30 21:32 37.88107 23.88368 24987 ft 468 kts 137°
2026-04-30 21:32 37.85830 23.91303 24305 ft 465 kts 137°
2026-04-30 21:32 37.83569 23.94212 23618 ft 462 kts 137°
2026-04-30 21:32 37.81320 23.97102 22886 ft 458 kts 137°
2026-04-30 21:33 37.79098 23.99960 22219 ft 453 kts 137°
2026-04-30 21:33 37.74727 24.05576 20919 ft 443 kts 137°
2026-04-30 21:33 37.72603 24.08300 20303 ft 439 kts 137°
2026-04-30 21:34 37.70469 24.11034 19697 ft 435 kts 137°
2026-04-30 21:34 37.66260 24.16423 18543 ft 427 kts 137°
2026-04-30 21:34 37.64175 24.19086 17929 ft 424 kts 137°
2026-04-30 21:35 37.62063 24.21656 17104 ft 421 kts 145°
2026-04-30 21:35 37.59485 24.23350 15955 ft 416 kts 168°
2026-04-30 21:35 37.56691 24.23648 14883 ft 395 kts 192°
2026-04-30 21:35 37.54210 24.22523 14111 ft 367 kts 218°
2026-04-30 21:36 37.52577 24.20311 13822 ft 332 kts 244°
2026-04-30 21:36 37.51982 24.17567 13353 ft 326 kts 270°
2026-04-30 21:37 37.53713 24.09310 11825 ft 325 kts 285°
2026-04-30 21:37 37.54358 24.06593 11321 ft 323 kts 283°
2026-04-30 21:37 37.54534 24.03814 10910 ft 316 kts 264°
2026-04-30 21:37 37.54309 24.01116 10789 ft 303 kts 265°
2026-04-30 21:38 37.54179 23.98551 10654 ft 291 kts 267°
2026-04-30 21:38 37.54086 23.96015 10543 ft 281 kts 267°
2026-04-30 21:38 37.54002 23.93594 10347 ft 274 kts 267°
2026-04-30 21:38 37.53912 23.91247 10114 ft 270 kts 267°
2026-04-30 21:39 37.53816 23.88900 9934 ft 268 kts 266°
2026-04-30 21:39 37.53715 23.86550 9805 ft 268 kts 266°
2026-04-30 21:39 37.53606 23.84202 9673 ft 269 kts 266°
2026-04-30 21:39 37.53493 23.81837 9258 ft 275 kts 266°
2026-04-30 21:40 37.53376 23.79425 8926 ft 271 kts 266°
2026-04-30 21:40 37.53383 23.77147 8789 ft 251 kts 282°
2026-04-30 21:40 37.54122 23.75236 8524 ft 242 kts 312°
2026-04-30 21:40 37.55529 23.74107 8110 ft 245 kts 342°
2026-04-30 21:41 37.57243 23.73868 7684 ft 252 kts 353°
2026-04-30 21:41 37.58997 23.73744 7378 ft 250 kts 354°
2026-04-30 21:41 37.60737 23.73620 6921 ft 249 kts 354°
2026-04-30 21:41 37.62458 23.73495 6462 ft 247 kts 354°
2026-04-30 21:42 37.64169 23.73367 6008 ft 244 kts 354°
2026-04-30 21:42 37.65845 23.73239 5629 ft 238 kts 354°
2026-04-30 21:42 37.67484 23.73112 5250 ft 234 kts 354°
2026-04-30 21:42 37.69099 23.72985 4887 ft 232 kts 354°
2026-04-30 21:43 37.70725 23.72916 4534 ft 235 kts
2026-04-30 21:43 37.72313 23.73370 4197 ft 237 kts 20°
2026-04-30 21:43 37.73721 23.74417 3951 ft 231 kts 33°
2026-04-30 21:43 37.74971 23.75599 3840 ft 218 kts 34°
2026-04-30 21:44 37.76147 23.76724 3746 ft 206 kts 34°
2026-04-30 21:44 37.77272 23.77791 3647 ft 200 kts 31°
2026-04-30 21:44 37.78385 23.78841 3588 ft 198 kts 32°
2026-04-30 21:44 37.79456 23.79855 3425 ft 188 kts 34°
2026-04-30 21:45 37.80484 23.80827 3184 ft 181 kts 36°
2026-04-30 21:45 37.81479 23.81769 2952 ft 175 kts 35°
2026-04-30 21:45 37.82445 23.82682 2724 ft 172 kts 35°
2026-04-30 21:45 37.83389 23.83576 2498 ft 167 kts 35°
2026-04-30 21:46 37.84295 23.84435 2280 ft 156 kts 36°
2026-04-30 21:46 37.85132 23.85228 2078 ft 144 kts 35°
2026-04-30 21:46 37.85903 23.85959 1899 ft 134 kts 36°
2026-04-30 21:46 37.86653 23.86670 1716 ft 135 kts 37°
2026-04-30 21:47 37.87396 23.87373 1523 ft 133 kts 37°
2026-04-30 21:47 37.88139 23.88079 1349 ft 133 kts 36°
2026-04-30 21:47 37.88870 23.88772 1162 ft 132 kts 36°
2026-04-30 21:47 37.89609 23.89472 995 ft 133 kts 37°
2026-04-30 21:48 37.90354 23.90176 798 ft 132 kts 40°
2026-04-30 21:48 37.91085 23.90873 626 ft 132 kts 37°
2026-04-30 21:48 37.91827 23.91584 452 ft 133 kts 39°
2026-04-30 21:48 37.92563 23.92288 317 ft 131 kts 38°
2026-04-30 21:49 37.93211 23.92907 294 ft 99 kts 37°
2026-04-30 21:49 37.93628 23.93298 293 ft 50 kts 37°
2026-04-30 21:49 37.93852 23.93532 294 ft 39 kts 49°
2026-04-30 21:49 37.93968 23.93809 299 ft 33 kts 67°
2026-04-30 21:50 37.94053 23.93977 300 ft 20 kts 40°
2026-04-30 21:50 37.94163 23.94084 301 ft 20 kts 38°
2026-04-30 21:50 37.94278 23.94197 301 ft 22 kts 37°
2026-04-30 21:50 37.94406 23.94315 304 ft 24 kts 36°
2026-04-30 21:51 37.94544 23.94443 302 ft 24 kts 37°
2026-04-30 21:51 37.94653 23.94547 305 ft 16 kts 37°
2026-04-30 21:51 37.94661 23.94665 302 ft 17 kts 125°
2026-04-30 21:51 37.94583 23.94795 302 ft 20 kts 127°
2026-04-30 21:52 37.94495 23.94944 302 ft 22 kts 126°
2026-04-30 21:52 37.94397 23.95112 303 ft 24 kts 127°
2026-04-30 21:52 37.94290 23.95291 303 ft 27 kts 127°
2026-04-30 21:52 37.94190 23.95462 300 ft 21 kts 127°
2026-04-30 21:53 37.94094 23.95554 299 ft 17 kts 198°
2026-04-30 21:53 37.93997 23.95467 299 ft 17 kts 218°
2026-04-30 21:53 37.93911 23.95376 302 ft 15 kts 228°
2026-04-30 21:53 37.93869 23.95261 302 ft 14 kts 249°
2026-04-30 21:54 37.93816 23.95166 300 ft 14 kts 218°
2026-04-30 21:54 37.93740 23.95093 302 ft 14 kts 218°
2026-04-30 21:54 37.93669 23.95024 302 ft 10 kts 216°
2026-04-30 21:54 37.93669 23.94964 301 ft 8 kts 309°
2026-04-30 21:55 37.93692 23.94927 301 ft 1 kts 308°
2026-04-30 21:55 37.93696 23.94920 301 ft 0 kts 308°